DateTimeUTC,F1_A11,F1_S11,BsB_S11,BsG_S11,BsR_S11,BbsB_S11,BbsG_S11,BbsR_S11,BaB_A11,BaG_A11,BaR_A11,Tu_S11,T_S11,Uu_S11,U_S11,P_S11,T1_A11
2021-11-25T16:00:00Z,00000200,21000000,,,,,,,0000.10,0000.14,0000.26,19.1,26.1,,00.0,0644.1,30.9
2021-11-25T16:01:00Z,00000200,21000000,,,,,,,-000.45,-000.12,-000.43,19.1,26.1,,00.0,0644.1,30.9
2021-11-25T16:02:00Z,00000200,21000000,,,,,,,-000.09,-000.08,0000.20,19.1,26.1,,00.0,0644.1,30.9
2021-11-25T16:03:00Z,00000200,61000000,,,,,,,-000.28,-000.52,-000.21,19.2,26.1,,00.0,0644.1,30.9
2021-11-25T16:04:00Z,00000200,41010000,0000.23,0000.03,0000.11,-000.01,-000.02,-000.19,0000.05,-000.06,-000.32,19.5,26.1,,00.0,0645.1,30.9
2021-11-25T16:05:00Z,00000200,01000000,0000.58,0000.11,-000.05,-000.64,-000.01,0000.06,-000.09,0000.12,-000.09,19.4,26.0,,00.0,0645.2,30.9
2021-11-25T16:06:00Z,00000200,01000000,-000.25,0000.04,0000.53,-000.10,0000.28,-000.06,-000.16,-000.08,0000.15,19.4,26.0,,00.0,0645.2,30.9
2021-11-25T16:07:00Z,00000200,01000000,-000.08,0000.18,0000.25,0000.08,-000.21,0000.04,0000.18,0000.14,0000.08,19.3,25.9,,00.0,0645.2,30.9
2021-11-25T16:08:00Z,00000200,01000000,-000.18,0000.13,0000.35,-000.49,0000.06,0000.02,-000.12,0000.00,-000.44,19.2,25.9,,00.0,0645.2,30.8
2021-11-25T16:09:00Z,00000200,01000000,0000.88,0000.21,0000.17,-000.44,-000.03,0000.07,0000.13,-000.25,0000.05,19.1,25.8,,00.0,0645.2,30.8
2021-11-25T16:10:00Z,00000200,01000000,0000.23,0000.08,0000.33,0000.05,-000.41,0000.19,0000.01,-000.01,0000.33,19.1,25.8,,00.0,0645.3,30.8
2021-11-25T16:11:00Z,00000200,01000000,-000.37,0000.15,0000.13,0000.08,-000.13,-000.37,-000.14,0000.24,0000.04,19.0,25.7,,00.0,0645.3,30.8
2021-11-25T16:12:00Z,00000200,01000000,0000.23,0000.30,0000.17,0000.05,0000.08,0000.03,0000.02,-000.37,-000.39,19.0,25.7,,00.0,0645.3,30.8
2021-11-25T16:13:00Z,00000200,01000000,0000.95,-000.01,-000.04,-000.70,0000.08,-000.06,-000.03,0000.48,0000.32,19.1,25.7,,00.0,0645.3,30.8
2021-11-25T16:14:00Z,00000200,01000000,0000.21,-000.07,-000.00,-000.35,0000.14,0000.26,0000.36,-000.34,-000.28,19.1,25.7,,00.0,0645.3,30.9
2021-11-25T16:15:00Z,00000200,01000000,0000.43,0000.00,0000.48,0000.69,-000.04,-000.31,-000.01,0000.35,0000.52,19.2,25.7,,00.0,0645.3,30.9
2021-11-25T16:16:00Z,00000200,01000000,0000.15,-000.13,-000.06,-000.39,0000.02,-000.18,-000.02,0000.16,-000.27,19.2,25.8,,00.0,0645.4,30.9
2021-11-25T16:17:00Z,00000200,01000000,-000.30,-000.08,0000.12,-000.01,0000.02,-000.26,-000.06,-000.10,-000.00,19.3,25.8,,00.0,0645.4,30.9
2021-11-25T16:18:00Z,00000200,01000000,-000.23,0000.03,0000.06,0000.06,-000.20,-000.00,0000.08,-000.14,0000.15,19.3,25.8,,00.0,0645.5,30.9
2021-11-25T16:19:00Z,00000200,01000000,0000.31,0000.03,0000.56,-000.38,0000.31,0000.03,-000.37,0000.02,-000.09,19.4,25.8,,00.0,0645.5,30.9
2021-11-25T16:20:00Z,00000200,01000000,0000.06,0000.09,0000.39,-000.43,-000.04,0000.02,0000.43,0000.12,0000.11,19.4,25.9,,00.0,0645.5,30.9
2021-11-25T16:21:00Z,00000200,01000000,0000.24,0000.04,-000.08,-000.28,-000.12,-000.28,-000.03,0000.15,-000.25,19.5,25.9,,00.0,0645.6,30.9
2021-11-25T16:22:00Z,00000200,01000000,0000.36,0000.09,0000.07,0000.30,-000.17,-000.17,-000.11,-000.11,-000.05,19.5,25.9,,00.0,0645.6,30.9
2021-11-25T16:23:00Z,00000200,01000000,0000.21,0000.50,-000.09,-000.03,0000.18,-000.02,0000.04,-000.34,0000.05,19.6,25.9,,00.0,0645.6,30.9
2021-11-25T16:24:00Z,00000200,01000000,0000.17,0000.13,-000.09,0000.00,-000.29,-000.23,-000.04,0000.23,-000.15,19.5,26.0,,00.0,0645.6,30.9
2021-11-25T16:25:00Z,00000200,01000000,0000.10,0000.17,0000.47,-000.04,-000.05,0000.12,0000.09,0000.00,-000.05,19.5,25.9,,00.0,0645.6,30.9
2021-11-25T16:26:00Z,00000200,01000000,0000.32,0000.41,0000.46,-000.51,-000.08,-000.17,0000.14,0000.37,0000.10,19.4,25.9,,00.0,0645.6,30.9
2021-11-25T16:27:00Z,00000200,01000000,-000.12,0000.42,0000.32,0000.20,-000.19,0000.12,0000.06,-000.46,-000.02,19.4,25.9,,00.0,0645.6,30.9
2021-11-25T16:28:00Z,00000200,01000000,0000.70,0000.10,0000.28,-000.37,0000.15,0000.15,0000.18,0000.19,0000.42,19.4,25.9,,00.0,0645.7,30.9
2021-11-25T16:29:00Z,00000200,01000000,0000.98,0000.26,-000.16,-000.08,-000.16,-000.38,0000.08,-000.11,-000.25,19.5,25.9,,00.0,0645.7,30.9
2021-11-25T16:30:00Z,00000200,01000000,0000.33,0000.35,-000.26,-000.57,-000.31,-000.06,-000.42,0000.55,0000.34,19.5,25.9,,00.0,0645.7,30.9
2021-11-25T16:31:00Z,00000200,01000000,-000.55,0000.37,0000.29,0000.52,0000.46,-000.10,0000.23,-000.02,0000.04,19.6,26.0,,00.0,0645.7,30.9
2021-11-25T16:32:00Z,00000200,01000000,0000.14,0000.32,0000.11,-000.25,0000.21,0000.07,0000.15,-000.27,-000.34,19.6,26.0,,00.0,0645.8,31.0
2021-11-25T16:33:00Z,00000200,01000000,0000.20,0000.32,0000.08,-000.41,-000.18,-000.39,-000.50,0000.16,0000.23,19.6,26.0,,00.0,0645.8,30.9
2021-11-25T16:34:00Z,00000200,01000000,0000.46,0000.25,0000.06,0000.13,-000.31,-000.40,0000.24,0000.05,-000.06,19.6,26.0,,00.0,0645.8,30.9
2021-11-25T16:35:00Z,00000200,01000000,0000.10,0000.24,0000.14,0000.39,0000.37,0000.14,0000.15,-000.06,0000.07,19.5,26.0,,00.0,0645.8,30.9
2021-11-25T16:36:00Z,00000200,01000000,0000.23,0000.30,0000.30,0000.17,-000.27,-000.01,0000.09,0000.20,-000.15,19.4,25.9,,00.0,0645.9,30.9
2021-11-25T16:37:00Z,00000200,01000000,0000.37,0000.36,-000.00,-000.31,-000.13,-000.18,-000.09,-000.08,0000.33,19.3,25.9,,00.0,0645.9,30.8
2021-11-25T16:38:00Z,00000200,01000000,0000.50,0000.36,-000.04,0000.45,-000.02,-000.04,-000.08,-000.29,-000.64,19.2,25.8,,00.0,0645.9,30.8
2021-11-25T16:39:00Z,00000200,01000000,-001.06,0000.70,0000.12,-000.42,0000.21,-000.28,0000.09,0000.04,0000.07,19.2,25.8,,00.0,0645.9,30.8
2021-11-25T16:40:00Z,00000200,01000000,0000.52,0000.13,0000.05,-000.80,-000.02,0000.03,0000.13,0000.19,0000.35,19.1,25.7,,00.0,0645.8,30.8
2021-11-25T16:41:00Z,00000200,01000000,0000.15,0000.15,0000.33,-000.25,0000.21,-000.35,-000.14,0000.10,-000.05,19.0,25.7,,00.0,0645.9,30.8
2021-11-25T16:42:00Z,00000200,01000000,0000.63,0000.07,0000.31,-000.20,0000.13,0000.34,0000.30,-000.14,-000.21,19.0,25.7,,00.0,0645.9,30.8
2021-11-25T16:43:00Z,00000200,01000000,0000.05,0000.28,0000.45,-000.26,0000.20,0000.12,0000.04,0000.26,0000.18,19.0,25.7,,00.0,0645.9,30.8
2021-11-25T16:44:00Z,00000200,01000000,-000.24,0000.38,0000.18,-000.62,-000.22,-000.03,0000.01,-000.01,0000.19,19.1,25.7,,00.0,0645.9,30.8
2021-11-25T16:45:00Z,00000200,01000000,-000.40,0000.12,0000.40,-000.34,-000.30,0000.24,0000.11,-000.19,-000.17,19.1,25.7,,00.0,0645.9,30.9
2021-11-25T16:46:00Z,00000200,01000000,0000.43,0000.12,0000.35,-000.06,0000.10,-000.20,0000.03,0000.24,0000.28,19.2,25.7,,00.0,0645.9,30.9
2021-11-25T16:47:00Z,00000200,01000000,-000.05,0000.26,0000.10,-000.23,-000.13,-000.06,0000.20,0000.15,0000.09,19.3,25.7,,00.0,0645.9,30.9
2021-11-25T16:48:00Z,00000200,01000000,0000.25,0000.15,0000.56,-000.56,-000.01,0000.34,-000.10,-000.09,-000.13,19.3,25.8,,00.0,0645.9,30.9
2021-11-25T16:49:00Z,00000200,01000000,0000.58,0000.12,0000.27,-000.24,-000.07,-000.06,0000.41,0000.20,0000.17,19.3,25.8,,00.0,0645.9,30.9
2021-11-25T16:50:00Z,00000200,01000000,-000.29,0000.19,0000.41,-000.26,-000.24,0000.16,-000.22,-000.26,-000.01,19.4,25.8,,00.0,0646.0,30.9
2021-11-25T16:51:00Z,00000200,01000000,-000.56,0000.12,0000.25,-000.26,0000.07,-000.21,0000.22,0000.46,0000.19,19.4,25.8,,00.0,0646.0,30.9
2021-11-25T16:52:00Z,00000200,01000000,0000.04,0000.36,-000.03,0000.40,-000.03,-000.16,-000.59,-000.45,-000.24,19.5,25.9,,00.0,0646.0,30.9
2021-11-25T16:53:00Z,00000200,01000000,0000.14,0000.17,0000.39,-000.56,-000.02,0000.04,0000.05,0000.03,-000.26,19.4,25.9,,00.0,0646.0,30.9
2021-11-25T16:54:00Z,00000200,01000000,0000.14,0000.31,-000.26,0000.06,0000.04,-000.09,0000.14,0000.12,0000.06,19.4,25.8,,00.0,0646.0,30.9
2021-11-25T16:55:00Z,00000200,01000000,-000.28,0000.29,0000.10,-000.41,-000.11,-000.19,0000.18,0000.11,0000.04,19.3,25.8,,00.0,0646.0,30.9
2021-11-25T16:56:00Z,00000200,01000000,0000.77,0000.04,-000.23,0000.23,-000.03,-000.38,0000.48,0000.39,0000.36,19.3,25.8,,00.0,0646.0,30.9
2021-11-25T16:57:00Z,00000200,41000000,,,,,,,0000.46,0000.54,0000.82,19.3,25.8,,00.0,0646.0,30.9
2021-11-25T16:58:00Z,00000200,61000000,,,,,,,-000.36,-000.42,-000.30,19.0,25.9,,00.0,0645.1,30.9
2021-11-25T16:59:00Z,00000200,21000000,,,,,,,-000.00,-000.08,-000.40,19.0,26.0,,00.0,0645.1,30.9
